{"data":{"norad_id":51115,"epoch":"2026-05-24T20:33:40.802400Z","epoch_age_seconds":94162,"freshness":"FRESH","line1":"1 51115U 22005M   26144.85672225  .00000403  00000+0  43381-4 0  9995","line2":"2 51115  53.2168 307.1915 0001335  91.0517 269.0628 15.08842358240374","mean_motion":15.08842358,"eccentricity":0.0001335,"inclination_deg":53.2168,"raan_deg":307.1915,"arg_perigee_deg":91.0517,"mean_anomaly_deg":269.0628,"bstar":4.3381e-5,"rev_number":24037,"period_min":95.437405529147,"perigee_km":538.81264544109,"apogee_km":540.65971758055,"semimajor_km":6917.8731815108,"source":"CELESTRAK","updated_at":"2026-05-25T13:38:16.908689Z"}}